This is the latest recevied weather packets stored in our database for station/object KI8L. If no packets are shown the sender has not sent any weather packets the latest 10 day(s).
| Time | Temp. | Humidity | Pressure | Rain* | Wind** | Luminosity | Snow |
|---|---|---|---|---|---|---|---|
| 1777156374 | 9.44° C | 99% | 1016.1 hPa | 0 mm | - | 42 W/m² | - |
| 1777156070 | 9.44° C | 99% | 1016 hPa | 0 mm | - | 47 W/m² | - |
| 1777155767 | 9.44° C | 99% | 1016.1 hPa | 0 mm | - | 40 W/m² | - |
| 1777155463 | 9.44° C | 99% | 1016 hPa | 0 mm | - | 31 W/m² | - |
| 1777155160 | 9.44° C | 99% | 1016.1 hPa | 0 mm | - | 46 W/m² | - |
| 1777154857 | 9.44° C | 99% | 1015.8 hPa | 0 mm | - | 43 W/m² | - |
| 1777154554 | 9.44° C | 99% | 1015.9 hPa | 0 mm | - | 42 W/m² | - |
| 1777154249 | 9.44° C | 99% | 1015.7 hPa | 0 mm | - | 45 W/m² | - |
| 1777153946 | 10° C | 99% | 1015.5 hPa | 0 mm | - | 50 W/m² | - |
| 1777153641 | 10° C | 99% | 1015.6 hPa | 0 mm | - | 47 W/m² | - |
| 1777153338 | 10° C | 99% | 1015.5 hPa | 0 mm | - | 59 W/m² | - |
| 1777153034 | 10° C | 99% | 1015.2 hPa | 0 mm | - | 90 W/m² | - |
| 1777152732 | 10° C | 99% | 1015.3 hPa | 0 mm | - | 56 W/m² | - |
| 1777152428 | 10° C | 99% | 1015.4 hPa | 0 mm | - | 74 W/m² | - |
| 1777152125 | 10° C | 99% | 1015.3 hPa | 0 mm | - | 72 W/m² | - |
| 1777151824 | 10° C | 99% | 1015.3 hPa | 0 mm | - | 105 W/m² | - |
| 1777151521 | 10° C | 99% | 1015.3 hPa | 0 mm | - | 72 W/m² | - |
| 1777151217 | 10° C | 99% | 1015.2 hPa | 0 mm | - | 74 W/m² | - |
| 1777150912 | 10.56° C | 99% | 1015 hPa | 0 mm | - | 66 W/m² | - |
| 1777150607 | 10.56° C | 99% | 1015.1 hPa | 0 mm | - | 77 W/m² | - |
| 1777150302 | 10.56° C | 99% | 1015.2 hPa | 0 mm | - | 66 W/m² | - |
| 1777150001 | 10.56° C | 99% | 1015.1 hPa | 0 mm | - | 69 W/m² | - |
| 1777149696 | 10.56° C | 99% | 1015 hPa | 0 mm | - | 60 W/m² | - |
| 1777149393 | 11.11° C | 99% | 1015 hPa | 0 mm | - | 58 W/m² | - |
| 1777149089 | 11.67° C | 99% | 1014.9 hPa | 0 mm | - | 56 W/m² | - |
* Rain latest hour (hover to see other rain measurements)
** Current wind speed in m/s (hover to see current wind gust speed)